Вернуться в каталог

STARLINK-32793

АктивенСвязьVLEO
NORAD 62874·PAYLOAD·🇺🇸 United States

Запущен Feb 1, 2025 с Vandenberg Space Force Base

Loading…

Ближайшие Пролёты (ближайшие 24 часа)

TLE

СвежийSource: CelesTrak SupGP

Эпоха: Sep 15, 2026, 03:40 UTC

1 62874C 25022W   26258.15326389  .00052115  00000+0  15397-2 0  2586
2 62874  53.1594 326.8799 0001399  85.7324 356.8968 15.34365519    19

Отслеживайте STARLINK-32793 в реальном времени с AllMySat

Download on the App Store